Capitol Logistics 798


SCEL
Arturo Merino Benitez International Airport
Santiago, CL
KMIA
Miami International Airport
Miami, US

Activity Log

Date Flight Route Aircraft Duration
09/30/2020 CPX798 IKBIX Y183 PEAKY DVALL CURSO5 B77L 8h 19m
01/02/2020 CPX798 IKBIX Y183 PEAKY DVALL CURSO5 B744 8h 14m
10/27/2019 CPX798 IKBIX Y183 PEAKY DVALL CURSO5 B744 8h 50m

Route Details

Aircraft Information
Primary: Boeing 747-400BCF
Backup: Boeing 777-200LRF
Route Data
Distance: 3625nm
Sched. Duration: 7h 40m
Avg. Duration: 8h 27m (+88m)
Times Flown: 3
Recm'd Route: IKBIX Y183 PEAKY DVALL CURSO5
Planned Altitude: 32,000ft
Origin Wx: SCEL 231700Z 17013KT 140V200 CAVOK 27/14 Q1012 NOSIG
Dest. Wx: KMIA 231653Z 33006KT 10SM FEW020 24/14 A3009 RMK AO2 SLP190 T02440144 $
Notes:

Financial History
Total Freight: 617,788lbs
Average Load: 205,929lbs/flt
Fuel Used: 556,737lbs
Avg. Fuel Used: 185,579lbs/flt
Fuel Expense: $445,390
Avg. Fuel Expense: $148,463
Avg. Fuel Cost: $0.80/lbs
Total Gross Income: $1,773,447
Pilot Pay: $717
Total Expenses: $191,688
Total Revenue: $1,130,071
Average Revenue: $591,148.98